Weather History for Walnut Ridge, AR

Change the Weather History Date:

Saturday, November 10, 2012

  Actual Average Record
Temperature  
Mean Temperature 60 °F -  
Max Temperature 71 °F 57 °F 78 °F (2002)
Min Temperature 48 °F 40 °F 30 °F (2008)
Degree Days  
Heating Degree Days 6    
Growing Degree Days 10 (Base 50)    
Moisture  
Dew Point 51 °F    
Average Humidity 73    
Maximum Humidity 93    
Minimum Humidity 56    
Precipitation  
Precipitation 0.00 in - - ()
Sea Level Pressure  
Sea Level Pressure 30.09 in    
Wind  
Wind Speed 12 mph (South)    
Max Wind Speed 23 mph    
Max Gust Speed 29 mph    
Visibility 10 miles    
Events      
Averages and records for this station are not official NWS values.
T = Trace of Precipitation, MM = Missing Value Source: NWS Daily Summary

Daily Weather History Graph

Daily Weather History Graph

Search for Another Location

Airport:

Trip Planner

Search our weather history database for the weather conditions in past years. The results will help you decide how hot, cold, wet, or windy it might be!

Date:

Astronomy

Nov. 10, 2012 Rise Set
Actual Time 6:35 AM CST 4:59 PM CST
Civil Twilight 6:08 AM CST 5:26 PM CST
Nautical Twilight 5:38 AM CST 5:56 PM CST
Astronomical Twilight 5:07 AM CST 6:27 PM CST
Moon 2:47 AM CST (11/10) 2:41 PM CST (11/10)
Length of Visible Light 11h 17m
Length of Day
10h 23m
Waning Crescent, 14% of the Moon is Illuminated
Nov 10
Waning Crescent
Nov 13
New
Nov 20
First Quarter
Nov 28
Full
Dec 6
Last Quarter

Hourly Weather History & Observations

Time (CST) Temp. Dew Point Humidity Pressure Visibility Wind Dir Wind Speed Gust Speed Precip Events Conditions
12:15 AM 48.2 °F 42.8 °F 82% 30.09 in 10.0 mi South 5.8 mph - N/A   Clear
12:35 AM 48.2 °F 42.8 °F 82% 30.09 in 10.0 mi South 8.1 mph - N/A   Clear
12:56 AM 48.2 °F 42.8 °F 82% 30.09 in 10.0 mi South 4.6 mph - N/A   Clear
1:15 AM 50.0 °F 42.8 °F 76% 30.09 in 10.0 mi South 5.8 mph - N/A   Clear
1:55 AM 48.2 °F 42.8 °F 82% 30.10 in 10.0 mi SSW 4.6 mph - N/A   Clear
2:15 AM 48.2 °F 42.8 °F 82% 30.10 in 10.0 mi Calm Calm - N/A   Clear
2:35 AM 50.0 °F 42.8 °F 76% 30.10 in 10.0 mi SSW 6.9 mph - N/A   Clear
2:55 AM 51.8 °F 44.6 °F 76% 30.10 in 10.0 mi SSW 9.2 mph - N/A   Clear
3:35 AM 51.8 °F 44.6 °F 76% 30.10 in 10.0 mi South 9.2 mph - N/A   Clear
3:55 AM 51.8 °F 46.4 °F 82% 30.11 in 10.0 mi South 8.1 mph - N/A   Clear
4:15 AM 50.0 °F 46.4 °F 87% 30.11 in 10.0 mi South 9.2 mph - N/A   Clear
4:35 AM 50.0 °F 46.4 °F 87% 30.12 in 10.0 mi South 9.2 mph - N/A   Clear
4:55 AM 50.0 °F 46.4 °F 87% 30.11 in 10.0 mi South 10.4 mph - N/A   Clear
5:15 AM 50.0 °F 46.4 °F 87% 30.11 in 10.0 mi South 10.4 mph - N/A   Clear
5:55 AM 48.2 °F 46.4 °F 93% 30.11 in 10.0 mi South 11.5 mph - N/A   Clear
6:35 AM 51.8 °F 48.2 °F 88% 30.12 in 10.0 mi South 15.0 mph - N/A   Overcast
6:55 AM 51.8 °F 48.2 °F 88% 30.13 in 10.0 mi South 12.7 mph - N/A   Overcast
7:15 AM 53.6 °F 48.2 °F 82% 30.15 in 10.0 mi South 13.8 mph - N/A   Overcast
7:35 AM 53.6 °F 50.0 °F 88% 30.15 in 10.0 mi South 12.7 mph - N/A   Mostly Cloudy
7:55 AM 55.4 °F 51.8 °F 88% 30.16 in 10.0 mi South 13.8 mph - N/A   Clear
8:35 AM 57.2 °F 51.8 °F 82% 30.17 in 10.0 mi South 16.1 mph - N/A   Mostly Cloudy
8:55 AM 57.2 °F 53.6 °F 88% 30.17 in 10.0 mi South 17.3 mph 21.9 mph N/A   Overcast
9:15 AM 59.0 °F 53.6 °F 82% 30.17 in 10.0 mi South 17.3 mph 24.2 mph N/A   Overcast
9:35 AM 60.8 °F 53.6 °F 77% 30.16 in 10.0 mi South 18.4 mph 26.5 mph N/A   Overcast
9:55 AM 60.8 °F 53.6 °F 77% 30.15 in 10.0 mi South 21.9 mph 26.5 mph N/A   Mostly Cloudy
10:15 AM 60.8 °F 53.6 °F 77% 30.15 in 10.0 mi SSW 23.0 mph - N/A   Partly Cloudy
10:35 AM 62.6 °F 53.6 °F 72% 30.14 in 10.0 mi SSW 20.7 mph 26.5 mph N/A   Clear
10:55 AM 64.4 °F 55.4 °F 73% 30.14 in 10.0 mi SSW 19.6 mph 26.5 mph N/A   Clear
11:15 AM 66.2 °F 55.4 °F 68% 30.14 in 10.0 mi SSW 23.0 mph 27.6 mph N/A   Clear
11:36 AM 66.2 °F 55.4 °F 68% 30.13 in 10.0 mi SSW 21.9 mph 28.8 mph N/A   Clear
11:55 AM 66.2 °F 55.4 °F 68% 30.11 in 10.0 mi South 23.0 mph 28.8 mph N/A   Clear
12:15 PM 68.0 °F 55.4 °F 64% 30.11 in 10.0 mi South 20.7 mph 25.3 mph N/A   Clear
12:36 PM 69.8 °F 55.4 °F 60% 30.10 in 10.0 mi SSW 20.7 mph 26.5 mph N/A   Clear
12:55 PM 69.8 °F 57.2 °F 64% 30.09 in 10.0 mi South 21.9 mph 26.5 mph N/A   Clear
1:15 PM 69.8 °F 57.2 °F 64% 30.09 in 10.0 mi South 21.9 mph - N/A   Scattered Clouds
1:35 PM 69.8 °F 57.2 °F 64% 30.08 in 10.0 mi South 19.6 mph - N/A   Scattered Clouds
1:55 PM 69.8 °F 55.4 °F 60% 30.07 in 10.0 mi South 18.4 mph 24.2 mph N/A   Scattered Clouds
2:15 PM 69.8 °F 55.4 °F 60% 30.06 in 10.0 mi South 17.3 mph 25.3 mph N/A   Partly Cloudy
2:35 PM 71.6 °F 57.2 °F 60% 30.06 in 10.0 mi South 20.7 mph 26.5 mph N/A   Clear
2:55 PM 71.6 °F 55.4 °F 57% 30.05 in 10.0 mi South 20.7 mph - N/A   Clear
3:15 PM 71.6 °F 55.4 °F 57% 30.05 in 10.0 mi South 17.3 mph - N/A   Clear
3:35 PM 71.6 °F 55.4 °F 57% 30.05 in 10.0 mi South 19.6 mph - N/A   Clear
3:55 PM 69.8 °F 55.4 °F 60% 30.05 in 10.0 mi South 18.4 mph 24.2 mph N/A   Clear
4:16 PM 69.8 °F 53.6 °F 56% 30.05 in 10.0 mi South 17.3 mph 26.5 mph N/A   Clear
4:35 PM 68.0 °F 53.6 °F 60% 30.05 in 10.0 mi South 15.0 mph - N/A   Clear
4:55 PM 66.2 °F 51.8 °F 60% 30.05 in 10.0 mi South 12.7 mph - N/A   Clear
5:35 PM 62.6 °F 51.8 °F 68% 30.07 in 10.0 mi South 9.2 mph - N/A   Clear
5:55 PM 60.8 °F 51.8 °F 72% 30.07 in 10.0 mi South 8.1 mph - N/A   Clear
6:15 PM 60.8 °F 51.8 °F 72% 30.08 in 10.0 mi SSE 9.2 mph - N/A   Clear
6:35 PM 60.8 °F 51.8 °F 72% 30.08 in 10.0 mi SSE 10.4 mph - N/A   Clear
6:55 PM 60.8 °F 51.8 °F 72% 30.08 in 10.0 mi SSE 9.2 mph - N/A   Clear
7:15 PM 60.8 °F 51.8 °F 72% 30.07 in 10.0 mi SSE 10.4 mph - N/A   Clear
7:55 PM 60.8 °F 51.8 °F 72% 30.06 in 10.0 mi SSE 11.5 mph - N/A   Clear
8:15 PM 62.6 °F 51.8 °F 68% 30.06 in 10.0 mi SSE 13.8 mph - N/A   Clear
8:55 PM 62.6 °F 51.8 °F 68% 30.06 in 10.0 mi SSE 11.5 mph - N/A   Clear
9:15 PM 62.6 °F 51.8 °F 68% 30.07 in 10.0 mi SSE 11.5 mph - N/A   Clear
10:15 PM 62.6 °F 51.8 °F 68% 30.05 in 10.0 mi SSE 16.1 mph - N/A   Clear
10:35 PM 62.6 °F 51.8 °F 68% 30.04 in 10.0 mi SSE 16.1 mph - N/A   Clear
10:56 PM 62.6 °F 51.8 °F 68% 30.04 in 10.0 mi SSE 16.1 mph - N/A   Clear
11:15 PM 62.6 °F 51.8 °F 68% 30.04 in 10.0 mi SSE 17.3 mph 23.0 mph N/A   Clear
11:35 PM 62.6 °F 51.8 °F 68% 30.04 in 10.0 mi SSE 17.3 mph 23.0 mph N/A   Clear